Погода в Ашаффенбурге

Германия     49°58′37″N   9°09′00″E
темп.,
°C
ветер,
м/с
пор.,
м/с
влажн.,
%
обл.,
%
осадки,
мм/ч
давл.,
гПа
погр.,
м
14 июня, пн
пн1423:00+13всв22694 0.0 102625
02:00+11в22825 0.0 102637
05:00+10в22905 0.0 102538
08:00+15вюв24670 0.0 1024354
11:00+20юв33475 0.0 1023864
14:00+24юв22395 0.0 10211172
17:00+25юв21390 0.0 10191294
20:00+21ююв23660 0.0 1019102
15 июня, вт
вт1523:00+15вюв21806 0.0 102013
02:00+14вюв117829 0.0 101912
05:00+13вюв117975 0.0 101911
08:00+18юв1164100 0.0 1019143
11:00+24ссз1148100 0.0 1019850
14:00+27сз1141100 0.0 10181725
17:00+27сз214284 0.0 10171870
20:00+23ссв1167100 0.0 101714
16 июня, ср
ср1623:00+18вюв2281100 0.0 101724
02:00+16в228885 0.0 101759
05:00+15в2295100 0.0 101739
08:00+19вюв237582 0.0 1016273
11:00+25юв335189 0.0 10161047
14:00+27юв3342100 0.0 10151746
17:00+27юв3344100 0.0 10141785
20:00+23вюв2366100 0.0 1014142
17 июня, чт
чт1723:00+19в2278100 0.0 101425
02:00+18вюв2281100 0.0 101427
05:00+16в238836 0.0 101448
08:00+21вюв376877 0.0 1014329
11:00+26юв47495 0.0 1013820
14:00+29юв43390 0.0 10121465
17:00+29юв32400 0.0 10121794
20:00+25юв24610 0.0 1011164
18 июня, пт
пт1823:00+20вюв22700 0.0 101118
02:00+18вюв118032 0.3 101111
05:00+17ююв2296100 2.4 101238
08:00+18ююз1598100 7.8 1014310
11:00+19юз2696100 0.3 1014497
14:00+23зюз3471100 0.4 1014814
17:00+25з335926 0.0 10141162
20:00+23зюз137496 0.0 1014103